Location: Arrodets-la-Barthe
(43.0306°N, 0.2829°E)
Time: 18:18:33
(UTC+00:00)

STRAND 1 - Pass Details

Date: 07 April 2023
Orbit: 767 x 779 km, 98.4° (Epoch: 04 June)

Event Time Altitude Azimuth Distance (km) Brightness Sun altitude
Rises 04:39:29 0° 127° (SE) 3,241 ? -10.0°
Reaches altitude 10° 04:42:14 10° 112° (ESE) 2,317 ? -9.5°
Maximum altitude 04:46:04 22° 63° (ENE) 1,643 ? -8.8°
Drops below altitude 10° 04:49:55 10° 14° (NNE) 2,322 ? -8.2°
Sets 04:52:41 0° 0° (N) 3,252 ? -7.7°
